www.pogodaiklimat.ru

Погода и климат >> Архив погоды >> Россия >> Хакасия >> Таштып


ПОГОДА в Таштыпе

  • Прогноз погоды в Таштыпе
  • Монитор погоды в Таштыпе

АРХИВ ПОГОДЫ в Таштыпе

Время (UTC), дата Ветер
(напр.,м/с)
 
Видим.   Явления Облачность Т
(С)
Тd
(С)
f
(%)
Тe
(С)
Тes
(С)
Комфортность P
(гПа)
Po
(гПа)
Тmin
(С)
Tmax
(С)
R
(мм)
R24
(мм)
S
(см)
09 12.07 штиль 0 20 км 10/10 1110 м
[Cb cap]
+19.0 +13.4 70 +20 +20 1013.9 962.3
12 12.07 З 2 4000 м слаб. ливневой дождь 10/10 1000 м
[Cb cap]
+16.0 +14.8 93 +16 +16 1014.9 962.8 +20.4 0.0
15 12.07 ЮЗ 2 10 км слаб. ливневой дождь 10/10 1000 м
[Cb cap]
+15.4 +14.6 95 +15 +15 1015.2 963.0
18 12.07 ЮЗ 1 7000 м слаб. ливневой дождь 10/10 1000 м
[Cb cap]
+15.0 +14.2 95 +15 +15 1013.9 961.6
21 12.07 ЮЗ 1 4000 м слаб. ливневой дождь 10/10 1000 м
[Cb cap]
+14.5 +13.8 96 +15 +15 1013.0 960.7
00 13.07 ЮЗ 1 4000 м слаб. ливневой дождь 10/10 600 м
[Cb cap]
+14.4 +13.8 96 +15 +15 1012.7 960.4 +14.3 11
03 13.07 В 2 20 км {ливн. осадки} 10/10 1260 м
[Cb cap]
+16.5 +14.0 85 +17 +17 1011.5 959.7
06 13.07 В 1 4000 м дымка {ливн. осадки} 10/10 900 м
[Cb cap]
+17.0 +13.9 82 +18 +18 1011.2 959.4
09 13.07 В 3 20 км 10/10 1200 м
[Cb cap]
+18.4 +14.0 76 +19 +19 1010.0 958.5
12 13.07 С 1 20 км 9/9 1260 м
[Cb cap]
+18.6 +14.4 77 +20 +21 1009.8 958.4 +20.0 2
15 13.07 штиль 0 20 км 10/10 1170 м
[Cb cap]
+15.9 +14.5 91 +16 +16 1010.0 958.2
18 13.07 ЮЗ 1 14 км 6/3 1000 м
[Sc Ci sp]
+13.7 +12.9 95 +14 +14 1009.6 957.3
21 13.07 З 1 4000 м дымка 10/0
[Ac As]
+14.0 +13.3 96 +14 +14 1008.9 956.8
00 14.07 ЮЗ 1 4000 м дымка 10/0
[Ac As]
+15.2 +14.3 94 +16 +16 1008.5 956.6 +13.2
03 14.07 ЮВ 1 4000 м дымка 10/0
[Ac As]
+17.4 +15.0 86 +18 +22 1008.2 956.7
06 14.07 В 3 4000 м дымка 10/0
[Ac As]
+21.1 +14.9 68 +24 +28 комфорт 1007.6 956.7
09 14.07 В 1 4000 м в посл. час ливневой дождь 9/4 1000 м
[Cb cap Ac As]
+21.6 +14.7 65 +25 +28 комфорт 1007.4 956.6
12 14.07 З 1 4000 м дымка {ливн. осадки} 9/5 1000 м
[Sc Ac trans]
+21.4 +15.3 68 +25 +25 комфорт 1007.7 956.9 +22.1 0.0
15 14.07 З 1 4000 м 3/3 1000 м
[Sc]
+16.6 +15.1 91 +17 +17 1009.4 957.7
18 14.07 З 1 7000 м дымка ясно +13.9 +13.1 95 +14 +14 1009.7 957.5
21 14.07 З 1 500 м туман ?/? +13.1 +12.5 96 +13 +13 1009.6 957.2
00 15.07 З 1 500 м туман ?/? +13.3 +12.7 96 +13 +13 1009.0 956.7 +12.6
03 15.07 штиль 0 4000 м в посл. час туман ясно +18.8 +15.6 82 +20 +34 опасность
простуды
1006.7 955.5
06 15.07 СВ 1 4000 м дымка {туман} ясно +24.2 +12.7 49 +26 +45 жарко 1003.8 953.6
09 15.07 В 3 4000 м дымка {ливн. осадки} 9/4
[Cb cap Ac As]
+22.9 +13.3 55 +26 +28 жарко 1002.6 952.3
12 15.07 СВ 6-10
{11}
4000 м дымка {ливн. осадки} 9/6 1170 м
[Cb cap Ac As]
+17.1 +11.7 71 +16 +16 1005.8 954.3 +24.2 0.0
15 15.07 В 2
{11}
20 км в посл. час ливневой дождь 10/8 1170 м
[Cb cap Cs]
+13.8 +11.7 87 +13 +13 1008.1 956.0
18 15.07 В 1 17 км {ливн. осадки} 9/9 1140 м
[Cb cap]
+12.8 +11.5 92 +13 +13 1007.2 954.9
21 15.07 штиль 0 20 км 10/10 1140 м
[Cb cap]
+12.2 +11.2 94 +12 +12 1006.1 953.8
00 16.07 Ю 2 1000 м слаб. ливневой дождь 10/10 1000 м
[Cb cap]
+12.7 +11.8 94 +12 +12 1006.2 954.0 +12.0 0.4
03 16.07 СВ 3 10 км {ливн. осадки} 9/9 1110 м
[Cb cap]
+16.3 +12.2 77 +16 +17 1005.1 953.5
06 16.07 В 2 20 км {ливн. осадки} 10/10 1110 м
[Cb cap]
+18.5 +12.3 67 +20 +20 1004.5 953.3
09 16.07 В 2 50 км 8/5 1000 м
[Cb cap Ci fib]
+20.7 +12.1 58 +24 +28 комфорт 1004.0 953.2
12 16.07 С 1 20 км 9/9 1110 м
[Cb cap]
+19.7 +12.3 62 +22 +23 комфорт 1004.9 953.9 +21.2 0.0
15 16.07 ЮЗ 1 20 км 8/5 1000 м
[Cb cap Ci fib]
+14.2 +12.4 89 +15 +15 1006.7 954.7
18 16.07 штиль 0 50 км 3/0
[Ci fib]
+10.6 +9.7 94 +10 +10 1007.7 954.9
21 16.07 ЮЗ 2 500 м туман ?/? +10.4 +9.8 96 +9 +9 1007.6 954.8
00 17.07 З 3 500 м туман ?/? +10.3 +9.8 97 +8 +8 1008.0 955.2 +9.9
03 17.07 ЮЗ 2 50 км {туман} 3/1 1000 м
[Cu med, cong Ci fib]
+16.3 +14.4 89 +16 +25 1007.0 955.3
06 17.07 З 3 50 км {туман} 8/4 1000 м
[Cu med, cong Ac trans Ci]
+23.8 +10.5 43 +25 +30 комфорт 1005.1 954.7
09 17.07 З 2 50 км 9/8 1300 м
[Cb cap Ac trans]
+23.9 +11.0 44 +25 +27 комфорт 1006.0 955.6
12 17.07 ЮЗ 1 20 км 9/8 1300 м
[Cb cap Ac trans]
+21.0 +12.5 58 +25 +25 комфорт 1007.3 956.4 +25.8
15 17.07 З 1 50 км 9/5 1000 м
[Cb cap Ac trans]
+18.7 +12.9 69 +21 +21 комфорт 1008.0 956.6
18 17.07 ЮЗ 2 40 км 9/5 1000 м
[Cb cap Ac trans]
+13.5 +12.3 92 +13 +13 1008.3 956.0
21 17.07 штиль 0 50 км 8/0
[Ac trans Ci fib]
+10.9 +10.2 95 +10 +10 1008.0 955.3
00 18.07 СЗ 2 50 км 8/3 1000 м
[Sc Ci fib]
+14.2 +12.3 88 +14 +15 1007.5 955.4 +10.2
03 18.07 Ю 2 50 км 8/3 1000 м
[Sc Ci fib]
+19.9 +13.9 68 +22 +29 комфорт 1006.4 955.4
06 18.07 СЗ 1 50 км 8/0
[Ac trans Ci fib]
+27.6 +13.2 41 +29 +43 жарко 1003.0 953.4
09 18.07 СВ 1 50 км 9/9 1110 м
[Cb cap]
+24.5 +14.6 54 +27 +28 жарко 1002.6 952.6
12 18.07 ЮЗ 2 20 км гроза без осадков 10/10 1140 м
[Cb cap]
+21.0 +14.8 68 +25 +25 комфорт 1003.8 953.2 +27.8
15 18.07 ЮЗ 2
{11}
10 км слаб. ливневой дождь {гроза} 10/10 1000 м
[Cb cap]
+16.2 +15.4 95 +16 +16 1008.0 956.3
18 18.07 ЮЗ 2 23 км в посл. час ливневой дождь {гроза} 5/5 1000 м
[Cb cap]
+14.8 +14.0 95 +14 +14 1008.1 956.1
21 18.07 З 1 500 м туман н/о +12.7 +12.0 96 +13 +13 1008.5 956.1
00 19.07 ЮЗ 2 200 м туман ?/? +12.7 +12.1 96 +12 +12 1009.2 956.8 +12.5 7
03 19.07 ЮЗ 3 50 км {туман} 6/0
[Ac trans Cs]
+18.6 +15.0 80 +20 +26 1007.4 956.1
06 19.07 штиль 0 20 км слаб. ливневой дождь {туман} 10/10 1000 м
[Cb cap]
+18.1 +14.9 82 +18 +18 1007.3 956.0

 

Местоположение метеостанции Таштып (Хакасия, Россия): широта 52.80 долгота 89.88 высота над уровнем моря 450 м.

В архиве по умолчанию представлена погода в Таштыпе за последнюю неделю. Архивные данные за месяц целиком и за предыдущие месяцы, начиная с января 2011 года, Вы можете получить, выбрав интересующий диапазон дат из раскрывающегося списка и нажав кнопку "Ввод!".


*Определитесь, кто Вы:
робот инопланетянин человек

Внимание! Время в таблицах - всемирное. Для получения местного времени необходимо прибавить поправку, которая равна 7 ч.

Смотрите также архив погоды в соседних городах и на ближайших метеорологических станциях:

Погода в Мантуре (Хакасия, Россия) (32 км)
Погода в Аскизе (Хакасия, Россия) (54 км)
Погода в Бее (Хакасия, Россия) (75 км)
Погода в Неожиданном (Хакасия, Россия) (76 км)
Погода в Большом Оне (Хакасия, Россия) (83 км)
Погода в Кантегире (Хакасия, Россия) (86 км)
Погода в Усть-Кабырзе (Кемеровская область, Россия) (96 км)
Погода в Карловом Створе (Хакасия, Россия) (100 км)
Погода в Черемушках (Хакасия, Россия) (101 км)
Погода в Уйбате (Хакасия, Россия) (107 км)

Пояснения к столбцам:

Ветер - указаны скорость ветра в м/с - средняя за 10 мин, порывы в срок и между сроками (в фигурных скобках) и направление, откуда дует ветер: С - северный, СВ - северо-восточный, В - восточный, ЮВ - юго-восточный, Ю - южный, ЮЗ - юго-западный, З - западный, СЗ - северо-западный.
Видимость - горизонтальная дальность видимости в метрах или километрах. При видимости от 1 до 10 км при отсутствии осадков обычно наблюдается дымка, при ухудшении видимости до 1 км и менее - туман. В сухую погоду видимость может ухудшаться дымом, пылью или мглою.
Явления - указаны атмосферные явления, наблюдавшиеся в срок или в последний час перед сроком; фигурными скобками обозначены явления, наблюдавшиеся между сроками (за 1-3 часа до срока); квадратными скобками обозначены град или гололедные отложения с указанием их диаметра в мм.
Облачность - указаны через наклонную черту общая и нижняя облачность в баллах и высота нижней границы облаков в метрах; квадратными скобками обозначены формы облаков: Ci - перистые, Cs - перисто-слоистые, Cc - перисто-кучевые, Ac - высококучевые, As - высокослоистые, Sc - слоисто-кучевые, Ns - слоисто-дождевые, Cu - кучевые, Cb - кучево-дождевые. Подробнее классификацию облаков см. в Атласе облаков (PDF).
T - Температура воздуха - температура, измеренная на высоте 2 м над землей.
Td - Температура точки росы - температура, при понижении до которой содержащийся в воздухе водяной пар достигнет насыщения.
f - Относительная влажность воздуха - влажноcть воздуха, измеренная на высоте 2 м над землей.
Te - Эффективная температура - температура, которую ощущает одетый по сезону человек в тени. Характеристика душности погоды. При расчете учитывается влияние влажности воздуха и скорости ветра на теплоощущения человека.
Tes - Эффективная температура на солнце - температура, которую ощущает человек, с поправкой на солнечный нагрев. Характеристика знойности погоды. Зависит от высоты солнца над горизонтом, облачности и скорости ветра. Ночью, в пасмурную погоду, а также при ветре 12 м/с и более поправка равна нулю.
P - Атмосферное давление - приведенное к уровню моря атмосферное давление.
Po - Атмосферное давление - измеренное на уровне метеостанции атмосферное давление.
Tmin - Минимальная температура - минимум температуры воздуха на высоте 2 м над землей.
Tmax - Максимальная температура - максимум температуры воздуха на высоте 2 м над землей.
R - Количество осадков - Количество выпавших осадков за период времени, мм. При наведении курсора мыши на число - период времени, за который выпало указанное количество осадков.
R24 - Количество осадков - Количество выпавших осадков за 24 часа, мм.
S - Снежный покров - Высота снежного покрова, см. При наведении курсора мыши на число - состояние снежного покрова и степень покрытия местности в баллах.